EW0387 Weather Reports


Display with metric or nautical units.
time (UTC)temp
F
wind
direction
speed
MPH
gust
MPH
rain 1hr
in
rain 24hr
in
rain mn
in
humidity
%
barometer
mb
20260505124527 36 352 5.0 0.0 0.00 0.00 0.06 94 1004.0
20260505123021 36 312 4.0 0.0 0.00 0.00 0.06 95 1004.1
20260505121518 36 18 5.0 0.0 0.00 0.00 0.06 94 1002.6
20260505120017 37 291 4.0 0.0 0.00 0.00 0.06 94 1002.4
20260505114515 37 305 6.0 0.0 0.00 0.00 0.06 94 1002.2
20260505113016 38 316 7.0 0.0 0.00 0.00 0.05 94 1002.1
20260505111509 38 356 7.0 0.0 0.00 0.00 0.03 94 1001.3
20260505101601 41 262 7.0 0.0 0.00 0.00 0.01 94 999.6
20260505100058 41 9 7.0 0.0 0.00 0.00 0.00 94 999.2
20260505094554 42 259 5.0 0.0 0.00 0.00 0.00 94 998.7
20260505093057 42 308 6.0 0.0 0.00 0.00 0.00 93 998.7
20260505091608 42 316 6.0 0.0 0.00 0.00 0.00 93 998.2
20260505090049 43 325 6.0 0.0 0.00 0.00 0.00 93 997.9
20260505084546 44 32 6.0 0.0 0.00 0.00 0.00 92 997.3
20260505083041 47 268 2.0 0.0 0.00 0.00 0.00 94 997.3
20260505081549 47 342 1.0 0.0 0.00 0.00 0.00 93 998.4
20260505080040 47 140 0.0 0.0 0.00 0.00 0.00 93 998.3
20260505074539 47 140 0.0 0.0 0.00 0.00 0.00 92 998.4
20260505073038 47 136 1.0 0.0 0.00 0.00 0.00 92 998.3
20260505071550 47 151 2.0 0.0 0.00 0.00 0.00 92 997.7
20260505070039 47 142 2.0 0.0 0.00 0.00 0.18 92 997.7
20260505064535 47 149 2.0 0.0 0.00 0.00 0.18 91 997.7
20260505063041 47 114 2.0 0.0 0.00 0.00 0.18 91 997.7
20260505061603 47 135 3.0 0.0 0.00 0.00 0.18 91 995.5
20260505060034 47 123 1.0 0.0 0.00 0.00 0.18 91 995.5
20260505054534 47 155 1.0 0.0 0.00 0.00 0.18 92 995.5
20260505053040 47 116 1.0 0.0 0.00 0.00 0.18 92 995.5
20260505051554 47 146 1.0 0.0 0.00 0.00 0.18 92 996.3
20260505041532 47 214 1.0 0.0 0.00 0.00 0.18 91 997.6
20260505040028 47 243 2.0 0.0 0.00 0.00 0.18 90 997.5
20260505034530 47 223 1.0 0.0 0.00 0.00 0.16 89 997.9
20260505033029 48 302 5.0 0.0 0.00 0.00 0.14 88 997.1
20260505031521 49 283 8.0 0.0 0.00 0.00 0.11 85 997.2
20260505030018 50 234 5.0 0.0 0.00 0.00 0.09 78 996.8
20260505024516 51 308 5.0 0.0 0.00 0.00 0.09 74 996.5
20260505023016 52 304 4.0 0.0 0.00 0.00 0.09 72 995.6
20260505021515 53 325 3.0 0.0 0.00 0.00 0.09 69 996.8
20260505020013 54 133 0.0 0.0 0.00 0.00 0.09 64 996.7
20260505014513 54 132 0.0 0.0 0.00 0.00 0.09 64 996.2
20260505013012 54 132 0.0 0.0 0.00 0.00 0.09 64 996.5
20260505011515 55 109 1.0 0.0 0.00 0.00 0.09 63 996.4
20260505010011 55 76 1.0 0.0 0.00 0.00 0.09 61 996.5
20260505004510 57 289 2.0 0.0 0.00 0.00 0.09 58 996.3
20260505003018 58 288 2.0 0.0 0.00 0.00 0.09 56 996.1
20260505001510 59 236 3.0 0.0 0.00 0.00 0.09 57 995.6
20260505000009 60 286 3.0 0.0 0.00 0.00 0.09 50 995.5
20260504234511 60 294 5.0 0.0 0.00 0.00 0.09 48 995.1
20260504233009 60 264 6.0 0.0 0.00 0.00 0.09 47 995.1
20260504231507 61 356 7.0 0.0 0.00 0.00 0.09 46 994.7
20260504230007 62 296 8.0 0.0 0.00 0.00 0.09 44 994.2
20260504224506 64 347 5.0 0.0 0.00 0.00 0.09 42 994.7
20260504223006 61 279 6.0 0.0 0.00 0.00 0.09 46 994.8
20260504221510 62 296 6.0 0.0 0.00 0.00 0.09 44 994.4
20260504220005 63 317 6.0 0.0 0.00 0.00 0.09 40 993.6
20260504214504 65 352 7.0 0.0 0.00 0.00 0.09 38 991.8
20260504213005 70 25 3.0 0.0 0.00 0.00 0.09 31 992.2
20260504211504 68 337 4.0 0.0 0.00 0.00 0.09 35 993.3
20260504210003 65 52 2.0 0.0 0.00 0.00 0.09 37 993.6
20260504204503 65 115 1.0 0.0 0.00 0.00 0.09 38 994.3
20260504203003 63 283 4.0 0.0 0.00 0.00 0.09 47 995.0
20260504201502 61 352 4.0 0.0 0.00 0.00 0.09 50 994.6
20260504200002 59 40 4.0 0.0 0.00 0.00 0.09 56 995.1
20260504194501 57 56 3.0 0.0 0.00 0.00 0.09 62 996.1
20260504193005 55 187 4.0 0.0 0.00 0.00 0.09 69 995.7
20260504191558 56 117 9.0 0.0 0.00 0.00 0.07 60 994.0
20260504190128 62 147 8.0 0.0 0.00 0.00 0.00 41 992.5
20260504184555 68 320 6.0 0.0 0.00 0.00 0.00 31 991.8
20260504183055 71 333 4.0 0.0 0.00 0.00 0.00 26 991.3
20260504181556 72 48 6.0 0.0 0.00 0.00 0.00 26 990.2
20260504180054 75 323 5.0 0.0 0.00 0.00 0.00 25 990.1
20260504174558 76 321 4.0 0.0 0.00 0.00 0.00 25 990.8
20260504173049 75 94 2.0 0.0 0.00 0.00 0.00 26 991.1
20260504171548 74 8 3.0 0.0 0.00 0.00 0.00 27 991.1